Location: Austin
(30.3000°N, 97.7500°W)
Time: 23:02:59
(UTC-05:00)

Aureole 1 - Pass Details

Date: 06 May 2026
Orbit: 382 x 1410 km, 73.9° (Epoch: 13 May)

Event Time Altitude Azimuth Distance (km) Brightness Sun altitude
Exits shadow 21:36:30 51° 116° (ESE) 517 4.2 -17.2°
Maximum altitude 21:36:39 52° 103° (ESE) 515 4.3 -17.2°
Drops below altitude 10° 21:39:58 10° 26° (NNE) 1,601 7.3 -17.8°
Sets 21:42:18 0° 21° (NNE) 2,601 8.4 -18.2°
